Hourly Data Report for February 19, 2002

SHERBROOKE A
QUEBEC

45°26'00.000" N
71°41'00.000" W
241.40 m
7028124
71610
YSC

Download Data

Hourly Data (February 2002)
Hourly Data Report for February 19, 2002
TIME
LST
Temp Definition
°C
Dew Point Definition
°C
Rel Hum Definition
%
Precip. Amount Definition
mm

Wind Dir Definition
10's deg

Wind Spd Definition
km/h
Visibility Definition
km
Stn Press Definition
kPa
Hmdx Definition


Wind Chill Definition


Weather Definition


00:00 -13.9 -15.1 91   8 6 15.0 99.54   -18  
01:00 -15.7 -17.1 89     0 15.0 99.50      
02:00 -15.6 -16.5 93   8 4 15.0 99.54   -19  
03:00 -16.5 -17.4 93   9 4 15.0 99.49   -20  
04:00 -18.0 -19.6 87   10 6 15.0 99.48   -23  
05:00 -18.1 -19.5 89   12 4 15.0 99.47   -21  
06:00 -18.2 -18.9 94   12 4 15.0 99.49   -21  
07:00 -18.1 -19.1 92     0 15.0 99.52      
08:00 -14.9 -16.9 85     0 24.1 99.53     Clear
09:00 -10.3 -15.3 67     0 24.1 99.51     Clear
10:00 -5.2 -13.5 52     0 24.1 99.47     Mainly Clear
11:00 -2.2 -13.6 41     0 24.1 99.40     Mainly Clear
12:00 -0.8 -11.0 46   25 9 24.1 99.27   -4 Mainly Clear
13:00 0.0 -10.8 44   26 9 24.1 99.24   -3 Mainly Clear
14:00 1.3 -9.5 44   26 9 24.1 99.23     Mostly Cloudy
15:00 2.2 -9.2 43     0 24.1 99.21     Mostly Cloudy
16:00 1.6 -9.2 44   30 9 24.1 99.22     Mostly Cloudy
17:00 1.1 -8.5 49   30 6 24.1 99.27     Mostly Cloudy
18:00 -1.7 -8.0 62   27 4 15.0 99.31   -3  
19:00 -1.3 -8.0 60     0 15.0 99.37      
20:00 -1.3 -6.7 67   7 4 15.0 99.37   -3  
21:00 -1.5 -6.6 68   12 4 15.0 99.32   -3  
22:00 -1.4 -6.7 67   11 6 15.0 99.26   -4  
23:00 -1.3 -6.8 66     0 15.0 99.24      

Notes on Data Quality.

Legend

  • E = Estimated
  • M = Missing
  • NA = Not Available*
  • [empty] = Indicates an unobserved value
Date modified: